TimeSAST,TemperatureF,Dew PointF,Humidity,Sea Level PressureIn,VisibilityMPH,Wind Direction,Wind SpeedMPH,Gust SpeedMPH,PrecipitationIn,Events,Conditions,WindDirDegrees,DateUTC
12:00 AM,59.0,55.4,88,30.01,4.3,WSW,4.6,-,N/A,,Overcast,240,2012-10-02 22:00:00
1:00 AM,57.2,53.6,88,29.98,6.2,SSW,5.8,-,N/A,,Overcast,210,2012-10-02 23:00:00
2:00 AM,57,55,89,29.99,2,WNW,6.9,,,,,290,2012-10-03 00:00:00
2:00 AM,57.2,55.4,94,29.98,-9999.0,WNW,6.9,-,N/A,,Drizzle,290,2012-10-03 00:00:00
3:00 AM,57.2,55.4,94,29.98,-9999.0,NW,6.9,-,N/A,,Overcast,310,2012-10-03 01:00:00
4:00 AM,55.4,53.6,94,29.98,4.3,WNW,6.9,-,N/A,,Overcast,300,2012-10-03 02:00:00
5:00 AM,56,53,86,29.98,12,NNW,6.9,,,,Mostly Cloudy,330,2012-10-03 03:00:00
5:00 AM,55.4,53.6,94,29.95,6.2,NNW,6.9,-,N/A,,Mostly Cloudy,330,2012-10-03 03:00:00
6:00 AM,55.4,51.8,88,29.98,6.2,NW,8.1,-,N/A,,Mostly Cloudy,310,2012-10-03 04:00:00
7:00 AM,57.2,51.8,82,29.98,6.2,NNW,6.9,-,N/A,,Mostly Cloudy,330,2012-10-03 05:00:00
8:00 AM,59,52,71,29.99,12,WNW,5.8,,,,Mostly Cloudy,290,2012-10-03 06:00:00
8:00 AM,59.0,51.8,77,29.98,6.2,WNW,5.8,-,N/A,,Mostly Cloudy,290,2012-10-03 06:00:00
9:00 AM,60.8,50.0,68,29.98,6.2,West,8.1,-,N/A,,Mostly Cloudy,270,2012-10-03 07:00:00
10:00 AM,62.6,50.0,63,29.98,6.2,WSW,4.6,-,N/A,,Scattered Clouds,240,2012-10-03 08:00:00
11:00 AM,64,50,50,29.98,12,South,8.1,,,,Mostly Cloudy,190,2012-10-03 09:00:00
11:00 AM,64.4,50.0,59,29.95,6.2,South,8.1,-,N/A,,Mostly Cloudy,190,2012-10-03 09:00:00
12:00 PM,66.2,51.8,60,29.92,6.2,SSW,6.9,-,N/A,,Scattered Clouds,200,2012-10-03 10:00:00
1:00 PM,68.0,51.8,56,29.92,6.2,South,5.8,-,N/A,,Partly Cloudy,190,2012-10-03 11:00:00
2:00 PM,67,51,47,29.89,12,SE,6.9,,,,Scattered Clouds,140,2012-10-03 12:00:00
2:00 PM,68.0,51.8,56,29.89,6.2,SE,6.9,-,N/A,,Partly Cloudy,140,2012-10-03 12:00:00
3:00 PM,64.4,53.6,68,29.89,6.2,SSE,10.4,-,N/A,,Partly Cloudy,160,2012-10-03 13:00:00
4:00 PM,64.4,51.8,64,29.89,6.2,SSE,6.9,-,N/A,,Partly Cloudy,150,2012-10-03 14:00:00
5:00 PM,65,48,43,29.90,12,SSE,5.8,,,,Scattered Clouds,150,2012-10-03 15:00:00
5:00 PM,64.4,48.2,56,29.89,6.2,SSE,5.8,-,N/A,,Partly Cloudy,160,2012-10-03 15:00:00
6:00 PM,64.4,46.4,52,29.89,6.2,Variable,2.3,-,N/A,,Partly Cloudy,0,2012-10-03 16:00:00
7:00 PM,60.8,48.2,63,29.92,6.2,SSW,10.4,-,N/A,,Scattered Clouds,210,2012-10-03 17:00:00
8:00 PM,60,55,78,29.96,12,SW,11.5,,,,Mostly Cloudy,220,2012-10-03 18:00:00
8:00 PM,60.8,53.6,77,29.95,6.2,SW,11.5,-,N/A,,Mostly Cloudy,220,2012-10-03 18:00:00
9:00 PM,57.2,53.6,88,29.98,3.7,SW,11.5,-,N/A,,Drizzle,230,2012-10-03 19:00:00
10:00 PM,55.4,53.6,94,29.98,6.2,West,8.1,-,N/A,,Light Drizzle,260,2012-10-03 20:00:00
11:00 PM,55.4,53.6,94,29.98,3.7,West,9.2,-,N/A,,Mostly Cloudy,260,2012-10-03 21:00:00